Regional Weather Roundup
Issued by NWS Albany, NY

Home | Current Version | Previous Version | Graphics & Text | Print | Product List | Glossary On
Versions: 1 2 3 4 5 6 7 8 9 10 11 12 13 14 15 16 17 18 19 20 21 22 23 24 25 26 27 28 29 30 31 32 33 34 35 36 37 38 39 40 41 42 43 44 45 46 47 48 49 50
199
ASUS41 KALY 221210
RWRALY

NEW YORK STATE HOURLY WEATHER ROUNDUP
NATIONAL WEATHER SERVICE ALBANY NY
700 AM EST WED NOV 22 2017

NOTE: "FAIR" INDICATES FEW OR NO CLOUDS BELOW 12,000 FEET WITH NO
SIGNIFICANT WEATHER AND/OR NO OBSTRUCTIONS TO VISIBILITY.

NYZ032-033-038>043-046>054-057>066-NYZ062>081-082-084-221300-
EAST


CITY           SKY/WX    TMP DP  RH WIND       PRES   REMARKS
ALBANY         MOCLDY    41  32  70 S3        29.90R
GLENS FALLS    CLOUDY    31  29  92 CALM      29.89S
POUGHKEEPSIE   CLOUDY    36  32  85 CALM      29.89F
NEWBURGH       CLOUDY    39  37  93 CALM      29.91R
MONTGOMERY     CLOUDY    34  32  92 CALM      29.89S
WHITE PLAINS   CLOUDY    47  44  90 SE5       29.90R
ISLIP          LGT RAIN  55  55 100 S6        29.92R FOG
NEW YORK CITY  LGT RAIN  53  48  83 CALM      29.91R
CENTRAL PARK   LGT RAIN  54  51  90 VRB3      29.93R FOG
$$

NYZ005>009-017-018-044>046-055-056-221300-
CENTRAL


CITY           SKY/WX    TMP DP  RH WIND       PRES   REMARKS
FULTON         LGT RAIN  36  34  92 NW9       29.99R WCI  29
SYRACUSE       LGT RAIN  35  30  82 NW8       29.99R WCI  29
ROME           LGT RAIN  40  38  93 W12       29.95R WCI  33
ELMIRA         LGT RAIN  39  35  86 CALM      29.98R
BINGHAMTON     LGT RAIN  39  34  82 NW8       29.90R WCI  33
MONTICELLO     LGT RAIN  36  35  96 CALM      29.92
$$

NYZ026>034-041>043-087-221300-
NORTH


CITY           SKY/WX    TMP DP  RH WIND       PRES   REMARKS
WATERTOWN      LGT RAIN  35  34  96 W5        29.99R WCI  31
FORT DRUM      NOT AVBL
OGDENSBURG     MIX PCPN  33  32  97 CALM      29.98R
MASSENA        LGT SNOW  33  33 100 SW3       29.98R FOG
SARANAC LAKE   FLURRIES  34  33  96 N6        29.86R WCI  29
PLATTSBURGH    CLOUDY    38  29  70 CALM      29.88S
$$

NYZ001>004-010>016-019>021-085-221300-
WEST


CITY           SKY/WX    TMP DP  RH WIND       PRES   REMARKS
NIAGARA FALLS  CLOUDY    36  26  67 W12       30.06R WCI  28
BUFFALO        MOCLDY    34  29  82 W9        30.05R WCI  27
DUNKIRK        CLOUDY    35  26  69 NW16      30.08R WCI  25
JAMESTOWN      LGT SNOW  31  29  92 N12       30.03R FOG     WCI  22
WELLSVILLE     CLOUDY    35  29  78 NW8       29.98R WCI  29
ROCHESTER      CLOUDY    35  35 100 W7        30.02R WCI  29
PENN YAN         N/A     34  31  88 NW9       30.00R FOG     WCI  27
$$

             KEY
       WCI = WIND CHILL INDEX
       VSB = VISIBILITY
       HX  = HEAT INDEX
$$




USA.gov is the U.S. government's official web portal to all federal, state and local government web resources and services.